This demonstration page uses our WeatherBlox Daily Observations layout. Learn more.

Left ArrowRight Arrow

31.31129, -92.44514

Hourly Observations for July 13, 2022

Temp ( °F °C ) Dew Point ( °F °C ) Humidity (%) Winds ( mph kmh ) Pressure ( in mb ) Visibility ( mi km ) Precip ( " mm )
12:53 am 00:53 Clear 81 27.2 73 22.8 77 77 SSE 3 6 29.93 1014 10 16 0.00 0.00
1:53 am 01:53 Clear 79 26.1 73 22.8 82 82 S 3 6 29.92 1013 10 16 0.00 0.00
2:53 am 02:53 Clear 78 25.6 73 22.8 85 85 S 5 7 29.91 1013 10 16 0.00 0.00
3:53 am 03:53 Clear 77 25 73 22.8 88 88 S 3 6 29.91 1013 10 16 0.00 0.00
4:53 am 04:53 Clear 76 24.4 73 22.8 91 91 SSE 6 9 29.93 1013 9 14 0.00 0.00
5:53 am 05:53 Clear 76 24.4 72 22.2 88 88 SSE 5 7 29.95 1014 8 13 0.00 0.00
6:53 am 06:53 Sunny 77 25 73 22.8 88 88 SSE 3 6 29.96 1015 8 13 0.00 0.00
7:53 am 07:53 Sunny 79 26.1 73 22.8 82 82 S 3 6 29.98 1015 9 14 0.00 0.00
8:53 am 08:53 Sunny 83 28.3 75 23.9 77 77 Calm 29.99 1016 8 13 0.00 0.00
9:53 am 09:53 Sunny 87 30.6 76 24.4 70 70 Calm 29.99 1016 8 13 0.00 0.00
10:53 am 10:53 Sunny 91 32.8 76 24.4 61 61 VRB 3 6 29.99 1016 9 14 0.00 0.00
11:53 am 11:53 Sunny 94 34.4 74 23.3 52 52 SE 6 9 30.00 1016 9 14 0.00 0.00
12:53 pm 12:53 Mostly Sunny 96 35.6 73 22.8 47 47 Calm 29.99 1016 10 16 0.00 0.00
1:53 pm 13:53 Sunny 97 36.1 71 21.7 43 43 SE 7 11 29.96 1015 10 16 0.00 0.00
2:53 pm 14:53 Sunny 100 37.8 67 19.4 34 34 undefined N/A 29.95 1014 10 16 0.00 0.00
3:53 pm 15:53 Sunny 100 37.8 67 19.4 34 34 S 6 9 29.93 1014 10 16 0.00 0.00
4:53 pm 16:53 Sunny 100 37.8 69 20.6 37 37 S 8 13 29.92 1013 10 16 0.00 0.00
5:53 pm 17:53 Sunny 98 36.7 73 22.8 45 45 SE 12 19 29.90 1013 10 16 0.00 0.00
6:53 pm 18:53 Sunny 95 35 72 22.2 47 47 SSE 14 22 29.90 1013 10 16 0.00 0.00
7:53 pm 19:53 Sunny 91 32.8 74 23.3 57 57 SSE 6 9 29.92 1013 9 14 0.00 0.00
8:53 pm 20:53 Clear 89 31.7 72 22.2 57 57 S 12 19 29.92 1013 9 14 0.00 0.00
9:53 pm 21:53 Clear 85 29.4 75 23.9 72 72 SSW 6 9 29.96 1015 10 16 0.00 0.00
10:42 pm 22:42 Mostly Cloudy with Nearby Thunderstorms 87 30.6 75 23.9 67 67 SW 7 11 29.98 1015 10 16 0.00 0.00
10:53 pm 22:53 Cloudy with Nearby Thunderstorms 86 30 74 23.3 67 67 undefined N/A 30.01 1016 10 16 0.00 0.00
11:03 pm 23:03 Cloudy with Thunderstorms 83 28.3 71 21.7 67 67 NW 21 33 30.02 1016 10 16 0.00 0.00
11:23 pm 23:23 Cloudy with Nearby Thunderstorms 79 26.1 70 21.1 74 74 NW 18 30 30.02 1016 10 16 0.00 0.00
11:53 pm 23:53 Cloudy with Thunderstorms 76 24.4 70 21.1 82 82 WNW 9 15 30.01 1016 5 8 0.04 1.02

Powered by AerisWeather